EW5546 Weather Reports


time (UTC)temp
F
wind
direction
speed
knots
gust
knots
rain 1hr
in
rain 24hr
in
rain mn
in
humidity
%
barometer
mb
20260902135023 75 203 0.9 2.6 0.00 0.04 0.00 43 1017.1
20260902134025 75 68 1.7 3.5 0.00 0.04 0.00 43 1017.1
20260902133028 74 101 1.7 2.6 0.00 0.04 0.00 45 1017.1
20260902132032 73 104 1.7 3.5 0.00 0.04 0.00 45 1017.1
20260902131015 0 213 1.7 2.6 0.00 0.04 0.00 1017.1
20260902130107 0 58 3.5 5.2 0.00 0.04 0.00 1017.1
20260902125025 0 219 1.7 2.6 0.00 0.04 0.00 1017.1
20260902124023 73 219 0.9 1.7 0.00 0.04 0.00 46 1017.1
20260902123038 0 203 1.7 6.1 0.00 0.04 0.00 1017.1
20260902122018 72 265 1.7 4.3 0.00 0.04 0.00 46 1017.1
20260902121026 72 272 0.9 1.7 0.00 0.04 0.00 46 1017.1
20260902120036 73 212 0.9 2.6 0.00 0.04 0.00 46 1017.1
20260902115024 72 212 0.9 2.6 0.00 0.04 0.00 47 1017.1
20260902114022 72 239 0.9 0.9 0.00 0.04 0.00 48 1017.1
20260902113023 71 215 0.0 1.7 0.00 0.04 0.00 50 1017.1
20260902112023 70 235 0.9 0.9 0.00 0.13 0.00 49 1017.1
20260902111026 0 54 0.9 2.6 0.00 0.13 0.00 1017.1
20260902110022 70 85 0.9 2.6 0.00 0.13 0.00 51 1017.1
20260902105038 71 206 0.9 1.7 0.00 0.13 0.00 52 1017.9
20260902104028 70 194 1.7 2.6 0.00 0.13 0.00 52 1018.1
20260902103044 70 222 0.9 1.7 0.00 0.13 0.00 53 1018.1
20260902102023 70 55 1.7 2.6 0.00 0.17 0.00 53 1017.2
20260902101016 70 203 1.7 1.7 0.00 0.17 0.00 54 1017.1
20260902100020 70 151 0.9 1.7 0.00 0.17 0.00 55 1018.1
20260902095025 70 47 0.9 3.5 0.00 0.17 0.00 56 1018.1
20260902094019 69 46 0.9 2.6 0.00 0.17 0.00 58 1018.1
20260902093023 69 174 0.9 2.6 0.00 0.17 0.00 57 1018.1
20260902092022 69 167 0.9 1.7 0.00 0.17 0.00 57 1017.2
20260902091023 69 271 0.9 0.9 0.00 0.17 0.00 58 1017.1
20260902090016 69 222 0.9 1.7 0.00 0.17 0.00 59 1018.1
20260902085022 69 213 0.9 1.7 0.00 0.17 0.00 60 1017.2
20260902084025 68 224 0.9 1.7 0.00 0.17 0.00 62 1017.1
20260902083025 0 162 1.7 3.5 0.00 0.17 0.00 1017.1
20260902082048 67 222 0.9 1.7 0.00 0.17 0.00 63 1017.1
20260902081025 0 203 0.9 1.7 0.00 0.17 0.00 1017.1
20260902080045 66 146 0.9 3.5 0.00 0.17 0.00 65 1017.1
20260902075028 0 219 0.9 1.7 0.00 0.17 0.00 1017.1
20260902074024 65 215 0.9 0.9 0.00 0.17 0.00 67 1017.1
20260902073017 0 218 0.9 1.7 0.00 0.17 0.00 1017.1
20260902072024 65 203 0.9 0.9 0.00 0.17 0.00 68 1017.1
20260902071024 65 212 0.0 1.7 0.00 0.17 0.00 68 1017.1
20260902070019 64 270 0.0 0.9 0.00 0.17 0.00 68 1017.1
20260902065024 64 222 0.9 1.7 0.00 0.17 0.00 69 1017.1
20260902064043 64 240 0.0 0.9 0.00 0.17 0.00 69 1017.1
20260902063042 64 216 0.0 1.7 0.00 0.17 0.00 70 1017.1
20260902062022 63 203 0.0 1.7 0.00 0.17 0.00 70 1017.1
20260902061023 62 235 0.9 2.6 0.00 0.17 0.00 71 1017.1
20260902060022 62 225 0.0 0.9 0.00 0.17 0.00 71 1017.1
20260902055023 63 248 0.0 0.9 0.00 0.17 0.00 71 1017.1
20260902054044 62 226 0.9 0.9 0.00 0.17 0.00 71 1017.1
20260902053017 62 203 0.0 1.7 0.00 0.17 0.00 71 1017.1
20260902052017 61 252 0.0 1.7 0.00 0.17 0.00 71 1017.1
20260902051026 61 239 0.9 1.7 0.00 0.17 0.00 72 1017.1
20260902050026 61 203 0.0 0.9 0.00 0.17 0.00 72 1016.1
20260902045022 61 248 0.0 0.9 0.00 0.17 0.00 72 1016.9
20260902044024 61 0.0 0.0 0.00 0.17 0.00 73 1017.1
20260902043022 60 0.0 0.0 0.00 0.17 0.00 73 1016.1
20260902042023 60 225 0.0 0.9 0.00 0.17 0.00 73 1016.1
20260902041023 60 0.0 0.0 0.00 0.17 0.00 73 1016.1
20260902040016 60 0.0 0.0 0.00 0.17 0.00 73 1016.1
20260902035217 60 203 0.0 0.9 0.00 0.17 0.00 73 1016.1
20260902034025 61 0.0 0.0 0.00 0.17 0.00 73 1016.1
20260902033026 61 225 0.0 0.9 0.00 0.17 0.00 73 1016.1
20260902032024 61 0.0 0.0 0.00 0.17 0.00 73 1016.1
20260902031204 61 0.0 0.0 0.00 0.17 0.00 73 1016.1
20260902030024 61 0.0 0.0 0.00 0.17 0.00 73 1016.1
20260902025018 61 248 0.0 0.9 0.00 0.17 0.00 73 1016.1
20260902024017 61 0.0 0.0 0.00 0.17 0.00 73 1016.1
20260902023015 61 225 0.0 0.9 0.00 0.17 0.00 73 1016.1
20260902022022 61 158 0.0 0.9 0.00 0.17 0.00 74 1016.1
20260902021042 61 225 0.0 0.9 0.00 0.17 0.00 74 1016.1
20260902020023 61 0.0 0.0 0.00 0.17 0.00 74 1016.1
20260902015020 61 0.0 0.0 0.00 0.17 0.00 73 1016.1
20260902014025 61 203 0.0 0.9 0.00 0.17 0.00 73 1016.1
20260902013025 62 0.0 0.0 0.00 0.17 0.00 73 1016.1
20260902012103 62 0.0 0.0 0.00 0.17 0.00 73 1016.1
20260902011024 62 0.0 0.0 0.00 0.17 0.00 73 1016.1
20260902010101 62 203 0.0 0.9 0.00 0.17 0.00 73 1016.1
20260902005023 62 0.0 0.0 0.00 0.17 0.00 73 1016.1
20260902004023 62 0.0 0.0 0.00 0.17 0.00 73 1016.1
20260902003045 62 0.0 0.0 0.00 0.17 0.00 73 1016.1
20260902002016 62 0.0 0.0 0.00 0.17 0.00 73 1016.1
20260902001019 62 0.0 0.0 0.00 0.17 0.00 73 1016.1
20260902000032 62 0.0 0.0 0.00 0.17 0.00 73 1016.1
20260901235023 0 0.0 0.0 0.00 0.17 0.00 1016.1
20260901234017 62 0.0 0.0 0.00 0.17 0.00 73 1016.1
20260901233022 62 0.0 0.0 0.00 0.17 0.00 73 1016.1
20260901232019 62 248 0.0 1.7 0.00 0.17 0.00 73 1016.1
20260901231045 62 0.0 0.0 0.00 0.17 0.00 73 1016.1
20260901230028 62 225 0.0 0.9 0.00 0.17 0.00 73 1016.1
20260901225043 62 0.0 0.0 0.00 0.17 0.00 73 1016.1
20260901224017 62 0.0 0.0 0.00 0.17 0.00 73 1016.1
20260901223025 62 0.0 0.0 0.00 0.17 0.00 73 1016.1
20260901222023 62 0.0 0.0 0.00 0.17 0.00 73 1016.1
20260901221024 62 0.0 0.0 0.00 0.17 0.00 73 1016.1
20260901220022 62 225 0.0 0.9 0.00 0.17 0.00 72 1016.1
20260901215023 62 0.0 0.0 0.00 0.17 0.17 73 1016.1
20260901214046 62 0.0 0.0 0.00 0.17 0.17 72 1016.1
20260901213145 62 0.0 0.0 0.00 0.17 0.17 72 1016.1
20260901212024 62 0.0 0.0 0.00 0.17 0.17 72 1016.1
20260901211015 62 0.0 0.0 0.00 0.17 0.17 72 1016.1
20260901210024 62 203 0.0 0.9 0.00 0.17 0.17 72 1016.1
20260901205018 63 225 0.0 0.9 0.00 0.17 0.17 73 1016.1
20260901204022 63 0.0 0.0 0.00 0.17 0.17 72 1016.1
20260901203018 63 0.0 0.0 0.00 0.17 0.17 72 1016.1
20260901202024 63 0.0 0.0 0.00 0.17 0.17 72 1016.1
20260901201022 63 0.0 0.0 0.00 0.17 0.17 71 1016.1
20260901200016 64 0.0 0.0 0.00 0.17 0.17 71 1016.1
20260901195024 64 0.0 0.0 0.00 0.17 0.17 71 1016.1
20260901194022 64 0.0 0.0 0.00 0.17 0.17 71 1016.1
20260901193015 64 203 0.0 0.9 0.00 0.17 0.17 71 1016.1
20260901192046 64 0.0 0.0 0.04 0.17 0.17 71 1016.1
20260901191046 64 0.0 0.0 0.04 0.17 0.17 70 1016.1
20260901190038 64 0.0 0.0 0.04 0.17 0.17 69 1016.1
20260901185025 64 203 0.0 0.9 0.04 0.17 0.17 68 1016.1
20260901184017 65 214 0.9 2.6 0.04 0.17 0.17 67 1016.1
20260901183018 65 203 0.9 1.7 0.00 0.12 0.12 64 1016.1
20260901182023 66 223 0.9 1.7 0.00 0.12 0.12 61 1016.1
20260901181022 66 231 0.0 1.7 0.00 0.12 0.12 58 1016.1
20260901180022 67 97 2.6 4.3 0.00 0.12 0.12 55 1015.0
20260901175022 67 229 0.9 0.9 0.00 0.12 0.12 54 1015.0
20260901174026 67 221 0.9 1.7 0.00 0.12 0.12 54 1015.0
20260901172024 68 219 1.7 1.7 0.00 0.12 0.12 53 1015.0
20260901171034 68 218 0.9 1.7 0.00 0.12 0.12 53 1015.0
20260901170025 68 214 1.7 1.7 0.00 0.12 0.12 52 1015.0
20260901165023 68 230 0.9 0.9 0.00 0.12 0.12 52 1014.2
20260901164022 68 228 0.9 2.6 0.00 0.12 0.12 52 1014.0
20260901163015 69 203 0.9 1.7 0.00 0.12 0.12 51 1015.0
20260901162105 69 205 1.7 2.6 0.00 0.12 0.12 51 1015.0
20260901161016 69 203 0.9 0.9 0.00 0.12 0.12 51 1015.0
20260901160023 69 231 0.9 2.6 0.00 0.12 0.12 50 1014.0
20260901155016 69 227 0.9 1.7 0.00 0.12 0.12 50 1014.0
20260901154022 69 239 0.9 1.7 0.00 0.12 0.12 50 1014.0
20260901153024 69 212 0.9 1.7 0.00 0.12 0.12 50 1014.0
20260901152103 69 209 0.9 1.7 0.00 0.12 0.12 49 1014.0
20260901151022 70 293 1.7 2.6 0.00 0.12 0.12 49 1014.0
20260901150016 71 221 0.9 1.7 0.00 0.12 0.12 49 1014.0
20260901145023 71 228 0.9 1.7 0.00 0.12 0.12 50 1014.0
20260901144023 72 203 0.9 1.7 0.00 0.12 0.12 50 1014.0
20260901143042 71 163 0.9 1.7 0.00 0.12 0.12 52 1014.0
20260901142017 70 163 0.9 1.7 0.00 0.12 0.12 54 1014.0
20260901141023 70 242 0.9 1.7 0.00 0.12 0.12 54 1014.0
20260901140026 0 83 1.7 5.2 0.00 0.12 0.12 1014.0